Location: Kosice
(48.7170°N, 21.2500°E)
Time: 07:43:25
(UTC+02:00)

ISS - Pass Details

Date: 02 April 2019
Orbit: 408 x 410 km, 51.6° (Epoch: 26 April)

Event Time Altitude Azimuth Distance (km) Brightness Sun altitude
Rises 20:56:09 0° 291° (WNW) 2,340 1.7 -17.8°
Reaches altitude 10° 20:58:15 10° 289° (WNW) 1,476 0.2 -18.1°
Maximum altitude 21:01:32 70° 206° (SSW) 439 -3.8 -18.5°
Enters shadow 21:01:49 65° 166° (SSE) 454 -3.9 -18.6°
